VIR3AB EGKK-EGCC

Flight info

Callsign VIR3AB
Flight time N/A
Altitude 22000
Route LAM6M LAM N57 WELIN T420 ELVOS ELVOS1M
Aircraft A35K/H-SDE2E3GHIJ3J4J5LM1ORWXY/LB1D1

Departure

Time 2026-04-17 13:21
Airport London Gatwick Airport (EGKK)

Arrival

Time N/A
Airport Manchester Airport (EGCC)
Time Latitude Longitude Altitude Speed Heading
2026-04-17 12:42 51.15548 -0.17187 210 ft 0 kts 134°
2026-04-17 13:12 51.15555 -0.17199 220 ft 3 kts 134°
2026-04-17 13:12 51.15581 -0.17241 219 ft 3 kts 134°
2026-04-17 13:12 51.15596 -0.17261 220 ft 3 kts 165°
2026-04-17 13:13 51.15615 -0.17263 222 ft 3 kts 200°
2026-04-17 13:13 51.15619 -0.17262 221 ft 0 kts 207°
2026-04-17 13:17 51.15611 -0.17270 223 ft 3 kts 214°
2026-04-17 13:17 51.15570 -0.17303 220 ft 11 kts 192°
2026-04-17 13:17 51.15451 -0.17277 221 ft 22 kts 168°
2026-04-17 13:17 51.15364 -0.17246 218 ft 3 kts 163°
2026-04-17 13:18 51.15330 -0.17178 217 ft 11 kts 98°
2026-04-17 13:18 51.15347 -0.17047 217 ft 14 kts 77°
2026-04-17 13:18 51.15369 -0.16873 214 ft 17 kts 83°
2026-04-17 13:18 51.15360 -0.16827 213 ft 4 kts 128°
2026-04-17 13:19 51.15313 -0.16813 215 ft 11 kts 187°
2026-04-17 13:19 51.15307 -0.16814 215 ft 0 kts 186°
2026-04-17 13:19 51.15305 -0.16815 215 ft 1 kts 185°
2026-04-17 13:19 51.15284 -0.16814 215 ft 5 kts 178°
2026-04-17 13:20 51.15235 -0.16806 217 ft 11 kts 169°
2026-04-17 13:20 51.15130 -0.16819 217 ft 19 kts 222°
2026-04-17 13:20 51.15061 -0.17202 210 ft 67 kts 257°
2026-04-17 13:20 51.14905 -0.18320 216 ft 138 kts 258°
2026-04-17 13:21 51.14667 -0.20104 397 ft 183 kts 255°
2026-04-17 13:21 51.14404 -0.22079 1403 ft 178 kts 255°
2026-04-17 13:21 51.14139 -0.24087 2114 ft 195 kts 255°
2026-04-17 13:21 51.13851 -0.26299 2701 ft 209 kts 256°
2026-04-17 13:22 51.13827 -0.28631 3540 ft 214 kts 277°
2026-04-17 13:22 51.14486 -0.30794 4371 ft 226 kts 307°
2026-04-17 13:22 51.15816 -0.32151 5169 ft 238 kts 339°
2026-04-17 13:22 51.17493 -0.32139 5959 ft 250 kts 14°
2026-04-17 13:23 51.18927 -0.30572 6696 ft 257 kts 52°
2026-04-17 13:23 51.19621 -0.27973 7429 ft 258 kts 79°
2026-04-17 13:23 51.19931 -0.25135 8118 ft 262 kts 83°
2026-04-17 13:23 51.20202 -0.22236 8833 ft 266 kts 83°
2026-04-17 13:24 51.20500 -0.19274 9476 ft 277 kts 82°
2026-04-17 13:24 51.20880 -0.16134 9806 ft 299 kts 80°
2026-04-17 13:24 51.21309 -0.12817 10120 ft 310 kts 79°
2026-04-17 13:24 51.21758 -0.09428 10182 ft 312 kts 79°
2026-04-17 13:25 51.22206 -0.06045 10184 ft 312 kts 79°
2026-04-17 13:25 51.22648 -0.02690 10181 ft 313 kts 80°
2026-04-17 13:25 51.23091 0.00702 10018 ft 312 kts 79°
2026-04-17 13:25 51.23532 0.04092 9996 ft 312 kts 80°
2026-04-17 13:26 51.23972 0.07491 9967 ft 312 kts 80°
2026-04-17 13:26 51.24410 0.10885 9933 ft 312 kts 80°
2026-04-17 13:26 51.24849 0.14291 9905 ft 312 kts 80°
2026-04-17 13:26 51.25286 0.17696 9875 ft 312 kts 80°
2026-04-17 13:27 51.25722 0.21091 9850 ft 312 kts 80°
2026-04-17 13:27 51.26152 0.24492 9913 ft 315 kts 78°
2026-04-17 13:27 51.26983 0.27822 10050 ft 336 kts 57°
2026-04-17 13:27 51.28666 0.30530 10271 ft 353 kts 30°
2026-04-17 13:28 51.30983 0.31900 10533 ft 363 kts
2026-04-17 13:28 51.33525 0.31903 11278 ft 369 kts 352°
2026-04-17 13:28 51.36108 0.31544 11827 ft 375 kts 351°
2026-04-17 13:28 51.38732 0.31182 12415 ft 380 kts 351°
2026-04-17 13:29 51.41359 0.30660 13033 ft 380 kts 343°
2026-04-17 13:29 51.43857 0.29339 13636 ft 379 kts 333°
2026-04-17 13:29 51.46269 0.27711 14209 ft 381 kts 332°
2026-04-17 13:29 51.48746 0.26002 14753 ft 385 kts 332°
2026-04-17 13:30 51.51225 0.24305 15291 ft 389 kts 332°
2026-04-17 13:30 51.53725 0.22597 15838 ft 392 kts 332°
2026-04-17 13:30 51.56218 0.20894 16378 ft 396 kts 332°
2026-04-17 13:30 51.58765 0.19159 16951 ft 399 kts 332°
2026-04-17 13:31 51.61334 0.17406 17489 ft 403 kts 332°
2026-04-17 13:31 51.63872 0.15485 18011 ft 402 kts 324°
2026-04-17 13:31 51.66114 0.12840 18538 ft 399 kts 314°
2026-04-17 13:31 51.68157 0.09822 19021 ft 399 kts 310°
2026-04-17 13:32 51.70109 0.06625 19497 ft 401 kts 308°
2026-04-17 13:32 51.72025 0.03350 19971 ft 403 kts 307°
2026-04-17 13:32 51.73949 0.00042 20443 ft 406 kts 308°
2026-04-17 13:32 51.75900 -0.03279 20893 ft 408 kts 307°
2026-04-17 13:33 51.77872 -0.06599 21364 ft 411 kts 308°
2026-04-17 13:33 51.79868 -0.09931 21805 ft 414 kts 308°
2026-04-17 13:33 51.81889 -0.13286 22054 ft 419 kts 308°
2026-04-17 13:33 51.83974 -0.16756 22123 ft 437 kts 308°
2026-04-17 13:34 51.86084 -0.20265 22125 ft 443 kts 308°
2026-04-17 13:34 51.88242 -0.23841 22129 ft 444 kts 308°
2026-04-17 13:34 51.90398 -0.27414 22128 ft 444 kts 308°
2026-04-17 13:34 51.92556 -0.30995 22129 ft 444 kts 308°
2026-04-17 13:35 51.94710 -0.34577 22129 ft 444 kts 308°
2026-04-17 13:35 51.96863 -0.38168 22130 ft 444 kts 308°
2026-04-17 13:35 51.99018 -0.41771 22129 ft 444 kts 308°
2026-04-17 13:35 52.01165 -0.45368 22127 ft 444 kts 308°
2026-04-17 13:36 52.03310 -0.48969 22131 ft 444 kts 308°
2026-04-17 13:36 52.05459 -0.52581 22127 ft 444 kts 307°
2026-04-17 13:36 52.07607 -0.56197 22126 ft 444 kts 307°
2026-04-17 13:36 52.09032 -0.58598 22129 ft 444 kts 307°
2026-04-17 13:37 52.11872 -0.63393 22128 ft 444 kts 307°
2026-04-17 13:37 52.14016 -0.67017 22126 ft 444 kts 307°
2026-04-17 13:37 52.16157 -0.70642 22126 ft 444 kts 307°
2026-04-17 13:37 52.17603 -0.73093 22125 ft 444 kts 307°
2026-04-17 13:38 52.19748 -0.76734 22121 ft 444 kts 307°
2026-04-17 13:38 52.21860 -0.80324 22114 ft 444 kts 307°
2026-04-17 13:38 52.24081 -0.83879 22112 ft 449 kts 313°
2026-04-17 13:38 52.26601 -0.86952 22104 ft 454 kts 319°
2026-04-17 13:39 52.29247 -0.89816 22110 ft 456 kts 321°
2026-04-17 13:39 52.31938 -0.92561 21712 ft 455 kts 322°
2026-04-17 13:39 52.34635 -0.95227 21179 ft 448 kts 322°
2026-04-17 13:39 52.37297 -0.97821 21075 ft 444 kts 322°
2026-04-17 13:40 52.39945 -1.00416 20983 ft 444 kts 322°
2026-04-17 13:40 52.42592 -1.03032 20877 ft 444 kts 322°
2026-04-17 13:40 52.45232 -1.05660 20772 ft 443 kts 322°
2026-04-17 13:40 52.47865 -1.08294 20665 ft 443 kts 322°
2026-04-17 13:41 52.50492 -1.10929 20573 ft 442 kts 322°
2026-04-17 13:41 52.53112 -1.13563 20490 ft 441 kts 322°
2026-04-17 13:41 52.55729 -1.16203 20389 ft 441 kts 322°
2026-04-17 13:41 52.58310 -1.18810 20299 ft 441 kts 322°
2026-04-17 13:42 52.60919 -1.21448 20187 ft 440 kts 322°
2026-04-17 13:42 52.63524 -1.24084 20083 ft 439 kts 322°
2026-04-17 13:42 52.66130 -1.26724 20073 ft 439 kts 322°
2026-04-17 13:42 52.68733 -1.29366 20074 ft 439 kts 322°
2026-04-17 13:43 52.71339 -1.32013 20075 ft 439 kts 321°
2026-04-17 13:43 52.73937 -1.34655 20000 ft 434 kts 321°
2026-04-17 13:43 52.76484 -1.37245 19437 ft 429 kts 321°
2026-04-17 13:43 52.79024 -1.39841 18584 ft 425 kts 322°
2026-04-17 13:44 52.81514 -1.42382 17202 ft 417 kts 322°
2026-04-17 13:44 52.83967 -1.44896 15774 ft 411 kts 322°
2026-04-17 13:44 52.86378 -1.47368 14576 ft 403 kts 323°
2026-04-17 13:44 52.88703 -1.49748 13966 ft 380 kts 323°
2026-04-17 13:45 52.90876 -1.51967 13544 ft 354 kts 322°
2026-04-17 13:45 52.92879 -1.54015 13160 ft 331 kts 321°
2026-04-17 13:45 52.94773 -1.55959 12846 ft 310 kts 321°
2026-04-17 13:45 52.96568 -1.57808 12554 ft 291 kts 320°
2026-04-17 13:46 52.98250 -1.59549 12058 ft 283 kts 320°
2026-04-17 13:46 52.99915 -1.61286 11687 ft 281 kts 319°
2026-04-17 13:46 53.01540 -1.62976 11326 ft 280 kts 319°
2026-04-17 13:46 53.03195 -1.64698 10961 ft 278 kts 319°
2026-04-17 13:47 53.04811 -1.66425 10597 ft 273 kts 315°
2026-04-17 13:47 53.06185 -1.68497 10282 ft 263 kts 303°
2026-04-17 13:47 53.07384 -1.70757 9921 ft 259 kts 302°
2026-04-17 13:47 53.08552 -1.73038 9526 ft 258 kts 302°
2026-04-17 13:48 53.09714 -1.75309 9133 ft 257 kts 302°
2026-04-17 13:48 53.10874 -1.77571 8710 ft 257 kts 302°
2026-04-17 13:48 53.12039 -1.79833 8315 ft 257 kts 302°
2026-04-17 13:48 53.13197 -1.82085 8073 ft 255 kts 302°
2026-04-17 13:49 53.14351 -1.84334 8022 ft 255 kts 302°
2026-04-17 13:49 53.15506 -1.86584 8025 ft 255 kts 302°
2026-04-17 13:49 53.16644 -1.88806 8031 ft 255 kts 302°
2026-04-17 13:49 53.17795 -1.91050 8021 ft 254 kts 302°
2026-04-17 13:50 53.18945 -1.93297 8037 ft 255 kts 302°
2026-04-17 13:50 53.20097 -1.95546 8039 ft 255 kts 302°
2026-04-17 13:50 53.21253 -1.97806 7739 ft 257 kts 302°
2026-04-17 13:50 53.22407 -2.00047 7441 ft 253 kts 303°
2026-04-17 13:51 53.23804 -2.01901 7102 ft 265 kts 327°
2026-04-17 13:51 53.25636 -2.02567 6714 ft 278 kts 356°
2026-04-17 13:51 53.27524 -2.01785 6359 ft 284 kts 22°
2026-04-17 13:51 53.29253 -2.00202 6056 ft 282 kts 30°
2026-04-17 13:52 53.30942 -1.98505 5984 ft 284 kts 30°
2026-04-17 13:52 53.32624 -1.96772 5982 ft 284 kts 30°
2026-04-17 13:52 53.34306 -1.95026 5977 ft 284 kts 30°
2026-04-17 13:52 53.35974 -1.93299 5976 ft 275 kts 30°
2026-04-17 13:53 53.37529 -1.91699 6009 ft 256 kts 30°
2026-04-17 13:53 53.39002 -1.90184 6013 ft 240 kts 30°
2026-04-17 13:53 53.40386 -1.88755 5960 ft 228 kts 30°
2026-04-17 13:53 53.41711 -1.87374 5622 ft 223 kts 30°
2026-04-17 13:54 53.44447 -1.84815 4681 ft 225 kts 11°
2026-04-17 13:54 53.45953 -1.84870 4204 ft 212 kts 334°
2026-04-17 13:55 53.48471 -1.87043 3523 ft 197 kts 320°
2026-04-17 13:55 53.49572 -1.88279 3449 ft 185 kts 306°
2026-04-17 13:55 53.49812 -1.91909 3421 ft 156 kts 239°
2026-04-17 13:56 53.48746 -1.94968 2966 ft 144 kts 235°
2026-04-17 13:56 53.48248 -1.96359 2954 ft 135 kts 234°
2026-04-17 13:56 53.47989 -1.97900 2961 ft 145 kts 261°
2026-04-17 13:57 53.48083 -1.99592 2810 ft 148 kts 272°
2026-04-17 13:57 53.48739 -2.01055 2730 ft 173 kts 317°
2026-04-17 13:57 53.50742 -2.02889 2717 ft 136 kts 278°
2026-04-17 13:58 53.50816 -2.04334 2762 ft 120 kts 253°
2026-04-17 13:58 53.49944 -2.06589 2765 ft 117 kts 214°
2026-04-17 13:58 53.49182 -2.07117 2744 ft 122 kts 198°
2026-04-17 13:59 53.47468 -2.06504 2547 ft 143 kts 155°
2026-04-17 13:59 53.46809 -2.05241 2454 ft 144 kts 134°
2026-04-17 13:59 53.46247 -2.03857 2443 ft 141 kts 140°
2026-04-17 14:00 53.45463 -2.03078 2450 ft 126 kts 179°
2026-04-17 14:00 53.44655 -2.03309 2502 ft 115 kts 210°
2026-04-17 14:00 53.43926 -2.03964 2656 ft 131 kts 200°
2026-04-17 14:00 53.42939 -2.03629 2941 ft 163 kts 156°